When you browse on this site, cookies collect data to enhance your experience and personalize the content and advertising you see.
Visit our Privacy Policy to learn more. By continuing to use the site, you agree to this use of cookies and data.
  • In United Kingdom
  • List of Countries
  • For 7 days
  • Water Temperature
  • Satellite Maps
  • Weather Map
  • Weather Widgets
  • user-avatar
    Login

    Hourly Weather Gamboma

    Today, 17 June, Monday

    Time Temperature Precipitation Wind Pressure Humidity
    00:00 +26°C° 0 mm 0 mps 730 mmHg 61%
    01:00 +28°C° 0 mm 1 mps 730 mmHg 63%
    02:00 +28°C° 0 mm 1 mps 730 mmHg 65%
    03:00 +27°C° 0 mm 1 mps 729 mmHg 67%
    04:00 +27°C° 0 mm 1 mps 729 mmHg 68%
    05:00 +27°C° 0.1 mm 1 mps 730 mmHg 69%
    06:00 +27°C° 0.1 mm 1 mps 730 mmHg 71%
    07:00 +27°C° 0.1 mm 1 mps 731 mmHg 72%
    08:00 +29°C° 0 mm 1 mps 731 mmHg 65%
    09:00 +30°C° 0 mm 2 mps 731 mmHg 58%
    10:00 +32°C° 0 mm 2 mps 731 mmHg 51%
    11:00 +34°C° 0 mm 2 mps 731 mmHg 47%
    12:00 +35°C° 0 mm 2 mps 730 mmHg 43%
    13:00 +37°C° 0 mm 2 mps 730 mmHg 38%
    14:00 +36°C° 0 mm 2 mps 729 mmHg 39%
    15:00 +36°C° 0 mm 2 mps 728 mmHg 40%
    16:00 +34°C° 0 mm 1 mps 728 mmHg 41%
    17:00 +33°C° 0 mm 1 mps 728 mmHg 45%
    18:00 +32°C° 0 mm 1 mps 728 mmHg 48%
    19:00 +31°C° 0 mm 1 mps 729 mmHg 52%
    20:00 +30°C° 0 mm 1 mps 729 mmHg 53%
    21:00 +30°C° 0 mm 1 mps 730 mmHg 55%
    22:00 +30°C° 0 mm 1 mps 730 mmHg 56%
    23:00 +29°C° 0 mm 1 mps 730 mmHg 59%

    Tomorrow, 18 June, Tuesday

    Time Temperature Precipitation Wind Pressure Humidity
    00:00 +27°C° 0 mm 0 mps 730 mmHg 62%
    01:00 +26°C° 0 mm 0 mps 730 mmHg 66%
    02:00 +26°C° 0 mm 0 mps 730 mmHg 68%
    03:00 +27°C° 0 mm 1 mps 730 mmHg 71%
    04:00 +26°C° 0 mm 1 mps 730 mmHg 74%
    05:00 +26°C° 0 mm 1 mps 730 mmHg 73%
    06:00 +27°C° 0 mm 1 mps 731 mmHg 72%
    07:00 +27°C° 0 mm 1 mps 731 mmHg 71%
    08:00 +29°C° 0 mm 1 mps 731 mmHg 62%
    09:00 +31°C° 0 mm 2 mps 732 mmHg 53%
    10:00 +34°C° 0 mm 2 mps 732 mmHg 44%
    11:00 +35°C° 0 mm 1 mps 731 mmHg 40%
    12:00 +37°C° 0 mm 1 mps 731 mmHg 36%
    13:00 +37°C° 0 mm 0 mps 730 mmHg 32%
    14:00 +36°C° 0 mm 0 mps 729 mmHg 32%
    15:00 +37°C° 0 mm 1 mps 729 mmHg 32%
    16:00 +36°C° 0 mm 1 mps 728 mmHg 33%
    17:00 +34°C° 0 mm 1 mps 728 mmHg 37%
    18:00 +32°C° 0 mm 1 mps 728 mmHg 41%
    19:00 +30°C° 0 mm 1 mps 728 mmHg 46%
    20:00 +30°C° 0 mm 1 mps 729 mmHg 50%
    21:00 +27°C° 0 mm 0 mps 729 mmHg 54%
    22:00 +26°C° 0 mm 0 mps 730 mmHg 58%
    23:00 +28°C° 0 mm 1 mps 730 mmHg 61%

    Day after tomorrow, 19 June, Wednesday

    Time Temperature Precipitation Wind Pressure Humidity
    00:00 +28°C° 0 mm 1 mps 729 mmHg 65%
    01:00 +27°C° 0 mm 1 mps 729 mmHg 69%
    02:00 +27°C° 0.1 mm 1 mps 729 mmHg 72%
    03:00 +26°C° 0.1 mm 1 mps 729 mmHg 75%
    04:00 +26°C° 0.1 mm 1 mps 729 mmHg 78%
    05:00 +26°C° 0 mm 1 mps 730 mmHg 76%
    06:00 +27°C° 0 mm 1 mps 730 mmHg 75%
    07:00 +27°C° 0 mm 1 mps 731 mmHg 73%
    08:00 +29°C° 0 mm 1 mps 731 mmHg 63%
    09:00 +31°C° 0 mm 2 mps 731 mmHg 54%
    10:00 +34°C° 0 mm 2 mps 731 mmHg 44%
    11:00 +35°C° 0 mm 1 mps 731 mmHg 40%
    12:00 +37°C° 0 mm 1 mps 730 mmHg 36%
    13:00 +40°C° 0 mm 1 mps 729 mmHg 32%
    14:00 +39°C° 0 mm 1 mps 729 mmHg 33%
    15:00 +37°C° 0 mm 1 mps 728 mmHg 34%
    16:00 +36°C° 0 mm 1 mps 727 mmHg 35%
    17:00 +34°C° 0 mm 1 mps 728 mmHg 40%
    18:00 +32°C° 0 mm 1 mps 728 mmHg 45%
    19:00 +31°C° 0 mm 1 mps 728 mmHg 51%
    20:00 +30°C° 0 mm 1 mps 729 mmHg 52%
    21:00 +28°C° 0 mm 0 mps 729 mmHg 53%
    22:00 +27°C° 0 mm 0 mps 729 mmHg 55%
    23:00 +27°C° 0 mm 0 mps 729 mmHg 56%

    20 June, Thursday

    Time Temperature Precipitation Wind Pressure Humidity
    00:00 +26°C° 0 mm 0 mps 729 mmHg 57%
    01:00 +26°C° 0 mm 0 mps 729 mmHg 58%
    02:00 +25°C° 0 mm 0 mps 729 mmHg 59%
    03:00 +25°C° 0 mm 0 mps 729 mmHg 60%
    04:00 +25°C° 0 mm 0 mps 729 mmHg 62%
    05:00 +25°C° 0 mm 0 mps 729 mmHg 61%
    06:00 +25°C° 0 mm 0 mps 730 mmHg 60%
    07:00 +28°C° 0 mm 1 mps 730 mmHg 59%
    08:00 +30°C° 0 mm 1 mps 730 mmHg 52%
    09:00 +32°C° 0 mm 1 mps 731 mmHg 46%
    10:00 +35°C° 0 mm 2 mps 731 mmHg 39%
    11:00 +35°C° 0 mm 1 mps 730 mmHg 36%
    12:00 +36°C° 0 mm 1 mps 729 mmHg 33%
    13:00 +39°C° 0 mm 1 mps 729 mmHg 29%
    14:00 +37°C° 0 mm 1 mps 728 mmHg 29%
    15:00 +37°C° 0 mm 1 mps 728 mmHg 29%
    16:00 +37°C° 0 mm 1 mps 727 mmHg 29%
    17:00 +35°C° 0 mm 1 mps 728 mmHg 33%
    18:00 +33°C° 0 mm 1 mps 728 mmHg 37%
    19:00 +29°C° 0 mm 0 mps 728 mmHg 41%
    20:00 +30°C° 0 mm 1 mps 729 mmHg 43%
    21:00 +30°C° 0 mm 1 mps 729 mmHg 45%
    22:00 +29°C° 0 mm 1 mps 730 mmHg 47%
    23:00 +29°C° 0 mm 1 mps 729 mmHg 50%

    21 June, Friday

    Time Temperature Precipitation Wind Pressure Humidity
    00:00 +28°C° 0 mm 1 mps 729 mmHg 52%
    01:00 +27°C° 0 mm 1 mps 729 mmHg 55%
    02:00 +27°C° 0 mm 1 mps 729 mmHg 56%
    03:00 +27°C° 0 mm 1 mps 729 mmHg 58%
    04:00 +26°C° 0 mm 1 mps 729 mmHg 60%
    05:00 +26°C° 0 mm 1 mps 729 mmHg 61%
    06:00 +27°C° 0 mm 1 mps 730 mmHg 62%
    07:00 +27°C° 0 mm 1 mps 730 mmHg 63%
    08:00 +29°C° 0 mm 2 mps 731 mmHg 57%
    09:00 +30°C° 0 mm 2 mps 731 mmHg 51%
    10:00 +32°C° 0 mm 2 mps 731 mmHg 46%
    11:00 +35°C° 0 mm 2 mps 730 mmHg 41%
    12:00 +36°C° 0 mm 2 mps 730 mmHg 37%
    13:00 +37°C° 0 mm 2 mps 729 mmHg 33%
    14:00 +36°C° 0 mm 1 mps 728 mmHg 32%
    15:00 +36°C° 0 mm 1 mps 728 mmHg 32%
    16:00 +36°C° 0 mm 1 mps 727 mmHg 32%
    17:00 +34°C° 0 mm 1 mps 727 mmHg 37%
    18:00 +33°C° 0 mm 1 mps 728 mmHg 42%
    19:00 +31°C° 0 mm 1 mps 728 mmHg 47%
    20:00 +30°C° 0 mm 1 mps 728 mmHg 54%
    21:00 +29°C° 0 mm 1 mps 729 mmHg 61%
    22:00 +28°C° 0 mm 2 mps 729 mmHg 68%
    23:00 +27°C° 0 mm 2 mps 729 mmHg 70%

    22 June, Saturday

    Time Temperature Precipitation Wind Pressure Humidity
    00:00 +27°C° 0 mm 2 mps 729 mmHg 73%
    01:00 +26°C° 0 mm 2 mps 729 mmHg 75%
    02:00 +26°C° 0 mm 2 mps 729 mmHg 76%
    03:00 +26°C° 0 mm 2 mps 729 mmHg 78%
    04:00 +26°C° 0 mm 2 mps 729 mmHg 79%
    05:00 +26°C° 0 mm 2 mps 729 mmHg 78%
    06:00 +26°C° 0 mm 2 mps 730 mmHg 77%
    07:00 +26°C° 0 mm 2 mps 730 mmHg 77%
    08:00 +28°C° 0 mm 2 mps 731 mmHg 67%
    09:00 +30°C° 0 mm 2 mps 731 mmHg 58%
    10:00 +33°C° 0 mm 3 mps 731 mmHg 49%
    11:00 +34°C° 0 mm 3 mps 731 mmHg 45%
    12:00 +35°C° 0 mm 3 mps 730 mmHg 41%
    13:00 +36°C° 0 mm 2 mps 729 mmHg 37%
    14:00 +36°C° 0 mm 2 mps 729 mmHg 38%
    15:00 +36°C° 0 mm 2 mps 728 mmHg 38%
    16:00 +36°C° 0 mm 2 mps 728 mmHg 38%
    17:00 +34°C° 0 mm 2 mps 728 mmHg 44%
    18:00 +31°C° 0 mm 2 mps 728 mmHg 50%
    19:00 +30°C° 0 mm 2 mps 728 mmHg 56%
    20:00 +29°C° 0 mm 1 mps 729 mmHg 59%
    21:00 +29°C° 0 mm 1 mps 729 mmHg 63%
    22:00 +28°C° 0 mm 1 mps 729 mmHg 66%
    23:00 +27°C° 0 mm 1 mps 729 mmHg 68%
    Show more